Terminal Aerodrome Forecast
Issued by NWS Houston/Galveston TX

Home | Current Version | Previous Version | Text Only | Print | Product List | Glossary On
Versions: 1 2 3 4 5 6 7 8 9 10 11 12 13 14 15 16 17 18 19 20 21 22 23 24 25 26 27 28 29 30 31 32 33 34 35 36 37 38 39 40 41 42 43 44 45 46 47 48 49 50
000
FTUS44 KHGX 171720
TAFHOU
TAF
KHOU 171720Z 1718/1818 10008KT P6SM BKN050 OVC070
     FM180100 10006KT P6SM BKN025 OVC045
     FM180900 11005KT 6SM BR VCSH SCT007 OVC015=

USA.gov is the U.S. government's official web portal to all federal, state and local government web resources and services.